[[{"header":{"parameterUnit":"m.s-1","parameterCategory":2,"la1":30.2992,"la2":30.254,"lo1":-89.0895,"lo2":-89.0443,"dy":0.0025,"dx":0.0025,"nx":19,"ny":19,"refTime":"2026-04-21T21:00:00:Z","depth":"0","parameterNumber":2,"parameterNumberName":"U-component_of_CURRENTS"},"data":[0,0,0,0.0735,0.0735,0.0744,0.0744,0.0761,0.0761,0,0,0,0,0,0,0,0,0,0,0,0.0724,0.0724,0.0735,0.0735,0.0744,0.0744,0.0761,0.0761,0,0,0,0,0,0,0,0,0,0,0,0.0724,0.0724,0.0724,0.0735,0.0744,0.0744,0.0761,0.0753,0,0,0,0,0,0,0,0,0,0,0.0743,0.0729,0.0724,0.0724,0.0735,0.0744,0.0744,0.0752,0.0753,0.0757,0,0.0751,0,0.0758,0.0762,0.0762,0,0,0,0.0737,0.0728,0.0735,0.0724,0.0735,0.0744,0.0741,0.0753,0.0754,0.0758,0.0751,0.0752,0.0759,0.0762,0.0762,0.0728,0.0727,0,0,0.0736,0.0724,0.0734,0.0735,0.0728,0.074,0.0741,0.0753,0.0748,0.0751,0.0752,0.0759,0.0762,0.0762,0.0728,0.0728,0,0,0,0.0733,0.0724,0.073,0.0734,0.0737,0.074,0.0741,0.0747,0.075,0.0753,0.0759,0.0762,0.0762,0.0729,0.0728,0.0744,0,0,0,0.0733,0.0722,0.073,0.0722,0.0736,0.0741,0.0734,0.0749,0.0751,0.0759,0.0762,0.0762,0.0729,0.0728,0.0744,0.0832,0,0,0,0.0725,0.0722,0.072,0.0722,0.0726,0.0741,0.0745,0.075,0.0755,0.0762,0.0762,0.073,0.0729,0.0745,0.083,0.1012,0,0,0,0.0717,0.0688,0.072,0.0688,0.0726,0.07,0.0745,0.0734,0.0734,0.0762,0.0729,0.0728,0.0745,0.0829,0.1007,0.1109,0.1136,0,0,0.0672,0.0682,0.0663,0.0692,0.0649,0.07,0.0678,0.0706,0.0719,0.0727,0.0727,0.0744,0.083,0.1011,0.1042,0.1072,0,0,0,0.0644,0.0619,0.0612,0.06,0.0608,0.0648,0.0658,0.068,0.0705,0.0714,0.0716,0.0771,0.0886,0.0935,0.0957,0.1035,0.0723,0.0723,0.0723,0.0555,0.0564,0.0532,0.0541,0.0547,0.0598,0.065,0.0685,0.0666,0.0678,0.0759,0.088,0.0923,0.0944,0.1017,0.0688,0.0688,0.0688,0.0688,0.0481,0.0491,0.0496,0.0476,0.054,0.0552,0.0654,0.0687,0.0831,0.0745,0.0855,0.0916,0.0971,0.1039,0.0688,0.0688,0.0688,0.0688,0.0688,0.0443,0.0467,0.0445,0.0477,0.0533,0.0606,0.079,0.0853,0.0902,0.0996,0.1158,0.1158,0.1258,0.1078,0.108,0.1081,0.1082,0.1083,0.1083,0.0471,0.0452,0.0481,0.0514,0.0584,0.0732,0.0924,0.1068,0.1248,0.1259,0.126,0.1304,0.1004,0.1033,0.1101,0.1097,0.1095,0.1094,0.1092,0.0512,0.0521,0.0564,0.062,0.0781,0.0913,0.11,0.1378,0.1558,0.1659,0.1654,0.1418,0.1474,0.1454,0.1494,0.1679,0.1679,0.1679,0.168,0.0588,0.0579,0.0668,0.0768,0.0921,0.1018,0.1245,0.147,0.176,0.1895,0.1935,0.1805,0.1778,0.1842,0.1814,0.1857,0.213,0.2131,0.2131,0.0675,0.0681,0.076,0.0812,0.0964,0.1094,0.1195,0.1401,0.1893,0.2152,0.2032,0.2013,0.1811,0.1762,0.1842,0.1795,0.1857,0,0]},{"header":{"parameterUnit":"m.s-1","parameterCategory":2,"la1":30.2992,"la2":30.254,"lo1":-89.0895,"lo2":-89.0443,"dy":0.0025,"dx":0.0025,"nx":19,"ny":19,"refTime":"2026-04-21T21:00:00:Z","depth":"0","parameterNumber":3,"parameterNumberName":"V-component_of_CURRENTS"},"data":[0,0,0,-0.0358,-0.0359,-0.0392,-0.0392,-0.0416,-0.0417,0,0,0,0,0,0,0,0,0,0,0,-0.0349,-0.0349,-0.0358,-0.0359,-0.0392,-0.0392,-0.0416,-0.0417,0,0,0,0,0,0,0,0,0,0,0,-0.0349,-0.0349,-0.035,-0.0359,-0.0392,-0.0392,-0.0416,-0.0395,0,0,0,0,0,0,0,0,0,0,-0.0365,-0.0362,-0.0349,-0.035,-0.036,-0.0392,-0.0392,-0.0394,-0.0396,-0.0398,0,-0.041,0,-0.0415,-0.0418,-0.0418,0,0,0,-0.0355,-0.036,-0.0368,-0.035,-0.036,-0.0392,-0.0376,-0.0395,-0.0398,-0.0401,-0.041,-0.0411,-0.0415,-0.0418,-0.0419,-0.0464,-0.0464,0,0,-0.0353,-0.0354,-0.0367,-0.037,-0.0377,-0.0375,-0.0377,-0.0397,-0.0403,-0.041,-0.0412,-0.0416,-0.0419,-0.0419,-0.0463,-0.0464,0,0,0,-0.0351,-0.0352,-0.0361,-0.0369,-0.0377,-0.0376,-0.0378,-0.0402,-0.0405,-0.0412,-0.0416,-0.0419,-0.0419,-0.0463,-0.0464,-0.0374,0,0,0,-0.035,-0.0351,-0.036,-0.036,-0.0377,-0.0393,-0.0383,-0.0404,-0.0406,-0.0416,-0.0419,-0.0419,-0.0463,-0.0463,-0.0376,-0.0239,0,0,0,-0.0346,-0.0351,-0.0357,-0.036,-0.0376,-0.0393,-0.0397,-0.0404,-0.0409,-0.0418,-0.0419,-0.0463,-0.0463,-0.0377,-0.0246,-0.0054,0,0,0,-0.0341,-0.0364,-0.0357,-0.0389,-0.0376,-0.0402,-0.0397,-0.042,-0.0432,-0.0419,-0.0463,-0.0464,-0.0378,-0.025,-0.0061,0.0113,0.0157,0,0,-0.0367,-0.0367,-0.0387,-0.0382,-0.0402,-0.0397,-0.0402,-0.0416,-0.0442,-0.0453,-0.0455,-0.0375,-0.0247,-0.0056,0.007,0.0116,0,0,0,-0.0394,-0.0399,-0.041,-0.0419,-0.0432,-0.038,-0.0421,-0.0418,-0.0417,-0.0453,-0.0416,-0.0336,-0.0218,-0.013,-0.0095,-0.0219,-0.0467,-0.0467,-0.0467,-0.0398,-0.0408,-0.0413,-0.0414,-0.0409,-0.0387,-0.0338,-0.0338,-0.0414,-0.0406,-0.0298,-0.0128,-0.0044,-0.0013,-0.0149,-0.0389,-0.0389,-0.0389,-0.0389,-0.04,-0.0378,-0.0372,-0.0369,-0.0314,-0.0287,-0.0227,-0.0237,-0.0123,-0.0256,-0.0148,-0.0084,0.0033,-0.0127,-0.0384,-0.0384,-0.0385,-0.0386,-0.0386,-0.0369,-0.0347,-0.0353,-0.0291,-0.018,-0.013,0.0117,0.0094,0.0039,0.0128,0.0289,0.0288,0.0194,0.0192,0.0194,0.0195,0.0196,0.0197,0.0198,-0.0303,-0.0307,-0.0217,-0.0161,-0.0022,0.0187,0.0365,0.0495,0.0569,0.0485,0.0486,0.0236,0.0053,0.0082,0.022,0.0216,0.0213,0.0211,0.021,-0.0213,-0.0197,-0.0033,0.0098,0.0435,0.075,0.084,0.1083,0.1147,0.1205,0.0736,0.0681,0.0716,0.0685,0.0729,0.1028,0.1028,0.1028,0.1028,-0.0107,-0.011,0.0232,0.0551,0.0891,0.1089,0.1485,0.1539,0.1323,0.1159,0.0995,0.0807,0.078,0.0803,0.077,0.0808,0.112,0.1119,0.1119,0.0009,0.0116,0.044,0.0752,0.1165,0.1473,0.1758,0.176,0.1377,0.1097,0.0792,0.0788,0.0469,0.0436,0.0425,0.0388,0.0432,0,0]}],[{"header":{"parameterUnit":"m.s-1","parameterCategory":2,"la1":30.2992,"la2":30.254,"lo1":-89.0895,"lo2":-89.0443,"dy":0.0025,"dx":0.0025,"nx":19,"ny":19,"refTime":"2026-04-21T21:00:00:Z","depth":"2","parameterNumber":2,"parameterNumberName":"U-component_of_CURRENTS"},"data":[0,0,0,0.0835,0.0835,0.0848,0.0848,0.0868,0.0869,0,0,0,0,0,0,0,0,0,0,0,0.0824,0.0824,0.0835,0.0835,0.0848,0.0848,0.0868,0.0869,0,0,0,0,0,0,0,0,0,0,0,0.0824,0.0824,0.0824,0.0835,0.0848,0.0848,0.0868,0.0858,0,0,0,0,0,0,0,0,0,0,0.0846,0.0831,0.0824,0.0824,0.0835,0.0848,0.0848,0.0858,0.0859,0.0864,0,0.0858,0,0.0866,0.087,0.087,0,0,0,0.0838,0.083,0.0837,0.0824,0.0836,0.0848,0.0843,0.0858,0.086,0.0865,0.0859,0.086,0.0866,0.087,0.087,0.0848,0.0847,0,0,0.0837,0.0825,0.0836,0.0838,0.083,0.0842,0.0843,0.0859,0.0854,0.0859,0.086,0.0867,0.087,0.087,0.0848,0.0847,0,0,0,0.0833,0.0825,0.0831,0.0837,0.084,0.0843,0.0843,0.0854,0.0857,0.0861,0.0867,0.087,0.087,0.0848,0.0848,0.0857,0,0,0,0.0833,0.0823,0.0831,0.0824,0.0839,0.0846,0.0837,0.0855,0.0858,0.0867,0.087,0.0871,0.0849,0.0848,0.0858,0.0945,0,0,0,0.0825,0.0822,0.0821,0.0823,0.0829,0.0846,0.085,0.0856,0.0862,0.087,0.0871,0.0849,0.0848,0.0859,0.0942,0.1112,0,0,0,0.0817,0.0789,0.0821,0.0793,0.0829,0.081,0.0849,0.0843,0.0844,0.087,0.0849,0.0848,0.0859,0.0941,0.1108,0.1213,0.1239,0,0,0.0774,0.0784,0.0767,0.0796,0.0761,0.0809,0.0792,0.0818,0.0833,0.0845,0.0845,0.0858,0.0942,0.1111,0.1158,0.1187,0,0,0,0.0749,0.0726,0.0723,0.0713,0.0726,0.0766,0.0774,0.0798,0.0824,0.0831,0.0836,0.0891,0.0997,0.1049,0.1071,0.0843,0.0843,0.0844,0.0844,0.0662,0.0673,0.0644,0.0656,0.0666,0.072,0.0772,0.0808,0.079,0.0803,0.0878,0.0993,0.1038,0.1059,0.0811,0.0811,0.0811,0.0811,0.0811,0.0589,0.0597,0.0606,0.0589,0.0654,0.067,0.0776,0.0808,0.0949,0.0869,0.0971,0.1029,0.1085,0.0811,0.0811,0.0811,0.0811,0.0811,0.0811,0.0549,0.0571,0.055,0.0585,0.0644,0.0721,0.0918,0.0977,0.1016,0.1103,0.126,0.126,0.1108,0.1176,0.1178,0.1179,0.118,0.118,0.1181,0.0571,0.0552,0.0592,0.0622,0.0705,0.0862,0.1058,0.1206,0.1363,0.1357,0.1358,0.112,0.1108,0.1133,0.1197,0.1195,0.1192,0.1191,0.119,0.0611,0.0627,0.0693,0.0762,0.0949,0.1119,0.1285,0.1564,0.1715,0.1809,0.1523,0.1509,0.1566,0.1546,0.1582,0.1761,0.1761,0.1761,0.1761,0.0693,0.0684,0.0843,0.0986,0.1171,0.1271,0.1492,0.1555,0.1671,0.163,0.1634,0.1475,0.1458,0.1497,0.1478,0.1508,0.1668,0.1667,0.1666,0.0787,0.0818,0.097,0.1075,0.1274,0.1414,0.1459,0.1347,0.1444,0.1644,0.143,0.1791,0.1562,0.1533,0.1593,0.1563,0.1611,0,0]},{"header":{"parameterUnit":"m.s-1","parameterCategory":2,"la1":30.2992,"la2":30.254,"lo1":-89.0895,"lo2":-89.0443,"dy":0.0025,"dx":0.0025,"nx":19,"ny":19,"refTime":"2026-04-21T21:00:00:Z","depth":"2","parameterNumber":3,"parameterNumberName":"V-component_of_CURRENTS"},"data":[0,0,0,-0.0412,-0.0413,-0.0449,-0.0449,-0.0479,-0.048,0,0,0,0,0,0,0,0,0,0,0,-0.0401,-0.0402,-0.0412,-0.0413,-0.0449,-0.0449,-0.0479,-0.048,0,0,0,0,0,0,0,0,0,0,0,-0.0401,-0.0402,-0.0402,-0.0413,-0.0449,-0.0449,-0.0479,-0.0455,0,0,0,0,0,0,0,0,0,0,-0.0421,-0.0417,-0.0402,-0.0402,-0.0413,-0.0449,-0.0449,-0.0454,-0.0456,-0.046,0,-0.0472,0,-0.0477,-0.0482,-0.0482,0,0,0,-0.0409,-0.0415,-0.0424,-0.0402,-0.0414,-0.0449,-0.0432,-0.0455,-0.0458,-0.0463,-0.0472,-0.0473,-0.0478,-0.0482,-0.0482,-0.0521,-0.0521,0,0,-0.0407,-0.0407,-0.0422,-0.0426,-0.0431,-0.043,-0.0433,-0.0457,-0.0464,-0.0472,-0.0474,-0.0478,-0.0482,-0.0482,-0.0521,-0.0521,0,0,0,-0.0404,-0.0406,-0.0414,-0.0425,-0.0433,-0.0432,-0.0434,-0.0463,-0.0466,-0.0474,-0.0479,-0.0482,-0.0483,-0.0521,-0.0521,-0.0428,0,0,0,-0.0402,-0.0404,-0.0414,-0.0414,-0.0433,-0.0451,-0.0439,-0.0464,-0.0467,-0.0478,-0.0482,-0.0483,-0.052,-0.0521,-0.043,-0.0326,0,0,0,-0.0398,-0.0403,-0.041,-0.0414,-0.0431,-0.0451,-0.0455,-0.0465,-0.047,-0.0482,-0.0483,-0.052,-0.0521,-0.0431,-0.0332,-0.0243,0,0,0,-0.0393,-0.0414,-0.041,-0.044,-0.0431,-0.0455,-0.0455,-0.0479,-0.0492,-0.0482,-0.052,-0.0521,-0.0432,-0.0335,-0.0248,-0.0339,-0.0326,0,0,-0.0416,-0.0417,-0.0435,-0.0432,-0.0447,-0.0449,-0.0448,-0.0467,-0.0499,-0.051,-0.0511,-0.0429,-0.0332,-0.0244,-0.0367,-0.0353,0,0,0,-0.044,-0.0444,-0.0454,-0.046,-0.0475,-0.0426,-0.0464,-0.0463,-0.0465,-0.0509,-0.0465,-0.0406,-0.0354,-0.0421,-0.041,-0.0523,-0.0523,-0.0523,-0.0523,-0.0437,-0.0446,-0.0448,-0.0446,-0.0443,-0.0424,-0.0385,-0.0386,-0.0454,-0.0445,-0.036,-0.0262,-0.0339,-0.033,-0.0429,-0.0429,-0.0428,-0.0428,-0.0428,-0.043,-0.0409,-0.0402,-0.0398,-0.0348,-0.0321,-0.0275,-0.0285,-0.0222,-0.0311,-0.0266,-0.0356,-0.0312,-0.0421,-0.0423,-0.0424,-0.0424,-0.0425,-0.0425,-0.0393,-0.0374,-0.0378,-0.0322,-0.0228,-0.0186,-0.0032,-0.003,-0.0092,-0.0038,-0.0124,-0.0128,-0.0141,-0.0032,-0.0031,-0.003,-0.003,-0.0029,-0.0028,-0.0328,-0.0331,-0.0261,-0.021,-0.0116,0.0028,0.0142,0.0165,0.0101,0.0016,0.0013,-0.0127,-0.014,-0.0118,-0.0016,-0.0018,-0.002,-0.0021,-0.0022,-0.0245,-0.0236,-0.013,-0.0045,0.0164,0.0225,0.0317,0.0267,0.0298,0.0216,0.0032,0.0026,0.0008,-0.0006,0.0017,0.015,0.015,0.015,0.015,-0.0155,-0.0157,0.0031,0.0209,0.0366,0.037,0.0354,0.0318,0.0211,0.016,0.016,0.0018,0.0009,-0.0017,-0.003,-0.0011,0.0116,0.0116,0.0117,-0.0056,-0.0019,0.015,0.0302,0.0473,0.0424,0.0271,0.0265,0.0206,0.0123,0.0229,0.0133,-0.0086,-0.0095,-0.0151,-0.0166,-0.0142,0,0]}],[{"header":{"parameterUnit":"m.s-1","parameterCategory":2,"la1":30.2992,"la2":30.254,"lo1":-89.0895,"lo2":-89.0443,"dy":0.0025,"dx":0.0025,"nx":19,"ny":19,"refTime":"2026-04-21T21:00:00:Z","depth":"4","parameterNumber":2,"parameterNumberName":"U-component_of_CURRENTS"},"data":[0,0,0,0.0526,0.0528,0.0665,0.0666,0.0802,0.0803,0,0,0,0,0,0,0,0,0,0,0,0.049,0.0491,0.0526,0.0528,0.0665,0.0666,0.0802,0.0803,0,0,0,0,0,0,0,0,0,0,0,0.049,0.0491,0.0492,0.0529,0.0665,0.0666,0.0802,0.0713,0,0,0,0,0,0,0,0,0,0,0.0587,0.0554,0.0491,0.0492,0.0529,0.0664,0.0666,0.0709,0.0718,0.0724,0,0.0747,0,0.0765,0.081,0.081,0,0,0,0.0546,0.0547,0.0577,0.0492,0.053,0.0664,0.0608,0.0715,0.0725,0.0736,0.0749,0.0754,0.0767,0.081,0.0811,0.1002,0.1003,0,0,0.0539,0.0522,0.057,0.0583,0.0567,0.0604,0.0612,0.0721,0.0735,0.0749,0.0757,0.0769,0.0811,0.0812,0.1001,0.1002,0,0,0,0.0505,0.0517,0.0546,0.0577,0.0598,0.0607,0.0617,0.0731,0.0739,0.0759,0.0771,0.0812,0.0813,0.0999,0.1001,0.1042,0,0,0,0.0501,0.0496,0.0542,0.0535,0.0596,0.0671,0.0624,0.0732,0.0745,0.077,0.0812,0.0814,0.0998,0.1,0.1037,0.1008,0,0,0,0.0484,0.0494,0.0509,0.0534,0.0583,0.067,0.0686,0.0736,0.0751,0.081,0.0814,0.0997,0.1,0.1033,0.1004,0.1062,0,0,0,0.0463,0.049,0.0509,0.0546,0.0581,0.0659,0.0685,0.0768,0.0822,0.0812,0.0998,0.1001,0.1032,0.1001,0.1059,0.0846,0,0,0,0.0481,0.0492,0.0513,0.0532,0.0596,0.0642,0.0748,0.0837,0.0876,0.0958,0.0964,0.1039,0.1004,0.1062,0.1039,0,0,0,0,0.0508,0.0523,0.0546,0.0591,0.0646,0.0725,0.0816,0.0891,0.1027,0.092,0.1093,0.107,0.1105,0.0975,0.1017,0.1016,0.1016,0.1016,0.1015,0.0502,0.0536,0.0581,0.0635,0.0691,0.0811,0.0899,0.1024,0.1063,0.1162,0.1145,0.1267,0.1138,0.1218,0.1219,0.1219,0.1219,0.1219,0.1219,0.0519,0.0545,0.0605,0.0666,0.0751,0.0854,0.1017,0.1094,0.1247,0.1257,0.1291,0.1079,0.1225,0.1224,0.1223,0.1222,0.1222,0.1221,0.1221,0.0502,0.0524,0.0573,0.0675,0.079,0.0916,0.1033,0.1167,0.1272,0.1306,0.1205,0.1299,0.1246,0.1356,0.1356,0.1356,0.1356,0.1356,0.1356,0.0469,0.0516,0.0592,0.0699,0.0783,0.0909,0.1073,0.1121,0.1229,0.1209,0.1329,0.1312,0.1308,0.1256,0.1359,0.1359,0.1358,0.1358,0.1358,0.0458,0.0496,0.0596,0.0676,0.0824,0.0882,0.1028,0.1049,0.1098,0.1084,0.117,0.1178,0.1136,0.1136,0.1075,0.1128,0.1126,0.1124,0,0.0452,0.0477,0.0619,0.0718,0.0783,0.0867,0.0844,0.0882,0.0978,0.0983,0.1112,0.1212,0.1216,0.1169,0.1165,0.1094,0,0,0,0.0463,0.0512,0.0605,0.0706,0.0769,0.0767,0.0832,0.0822,0.0982,0.0893,0.1063,0.1079,0.1141,0.1367,0.1323,0.1317,0.1231,0,0]},{"header":{"parameterUnit":"m.s-1","parameterCategory":2,"la1":30.2992,"la2":30.254,"lo1":-89.0895,"lo2":-89.0443,"dy":0.0025,"dx":0.0025,"nx":19,"ny":19,"refTime":"2026-04-21T21:00:00:Z","depth":"4","parameterNumber":3,"parameterNumberName":"V-component_of_CURRENTS"},"data":[0,0,0,0.0377,0.0377,0.0347,0.0347,0.0296,0.0296,0,0,0,0,0,0,0,0,0,0,0,0.039,0.039,0.0377,0.0377,0.0347,0.0347,0.0296,0.0296,0,0,0,0,0,0,0,0,0,0,0,0.039,0.039,0.039,0.0377,0.0347,0.0347,0.0296,0.0319,0,0,0,0,0,0,0,0,0,0,0.0348,0.037,0.039,0.039,0.0377,0.0347,0.0347,0.032,0.0317,0.0309,0,0.0315,0,0.0308,0.0293,0.0293,0,0,0,0.0365,0.0372,0.0362,0.039,0.0376,0.0348,0.0357,0.0318,0.0316,0.0306,0.0314,0.0312,0.0307,0.0293,0.0292,0.0357,0.0358,0,0,0.0367,0.0382,0.0364,0.0361,0.0383,0.0358,0.0357,0.0317,0.0321,0.0314,0.0311,0.0306,0.0292,0.0292,0.0356,0.0357,0,0,0,0.0379,0.0383,0.0375,0.0363,0.0361,0.0358,0.0356,0.0322,0.0319,0.0311,0.0306,0.0292,0.0292,0.0355,0.0356,0.0325,0,0,0,0.038,0.0391,0.0376,0.0384,0.0362,0.0344,0.0362,0.0322,0.0317,0.0306,0.0292,0.0291,0.0353,0.0355,0.0323,0.0256,0,0,0,0.0389,0.0392,0.0393,0.0385,0.0377,0.0345,0.0339,0.032,0.0315,0.0293,0.0291,0.0353,0.0355,0.0322,0.0257,0.0176,0,0,0,0.0399,0.0424,0.0393,0.0425,0.0378,0.0409,0.0339,0.0352,0.0344,0.0292,0.0354,0.0356,0.0321,0.0257,0.0177,0.0234,0,0,0,0.0438,0.0429,0.045,0.0422,0.0452,0.0411,0.0447,0.0399,0.0376,0.036,0.0362,0.0323,0.0257,0.0176,0.0377,0,0,0,0,0.0468,0.047,0.0481,0.0486,0.05,0.0471,0.0463,0.0442,0.0404,0.0383,0.0381,0.034,0.0289,0.0333,0.0368,0.0367,0.0367,0.0367,0.0366,0.0503,0.0506,0.0525,0.0524,0.054,0.0529,0.0492,0.0463,0.0468,0.0458,0.036,0.0334,0.0391,0.0441,0.044,0.044,0.044,0.044,0.044,0.0517,0.0506,0.0516,0.0529,0.0518,0.0535,0.0489,0.0462,0.0368,0.0403,0.0355,0.0357,0.0439,0.0439,0.0439,0.0439,0.0439,0.044,0.044,0.0489,0.0482,0.0495,0.0495,0.0481,0.0482,0.0404,0.0354,0.0305,0.0244,0.0257,0.0282,0.0227,0.0215,0.0214,0.0213,0.0213,0.0212,0.0212,0.044,0.0454,0.043,0.0443,0.0418,0.0385,0.0319,0.0272,0.0217,0.0193,0.0205,0.0255,0.0263,0.0215,0.0203,0.0205,0.0206,0.0207,0.0207,0.0374,0.0385,0.0328,0.0305,0.0277,0.027,0.0244,0.0214,0.0128,0.0093,0.0165,0.017,0.0157,0.0165,0.0112,0.0069,0.007,0.007,0,0.0315,0.0325,0.0211,0.0146,0.0126,0.0172,0.0151,0.0148,0.0098,0.0082,0.0069,0.0147,0.0153,0.014,0.0148,0.0088,0,0,0,0.0254,0.0217,0.0108,0.0066,0.0043,0.0105,0.0147,0.0138,0.0122,0.0143,0.0085,0.0081,0.0245,0.0175,0.0164,0.0173,0.0093,0,0]}]]